Flag for Central African Republic Weather past 2 weeks in Bangui, Central African Republic

Now
73 °F

Fog.


Feels Like: 68 °F
Forecast: 66 / 91 °F
Wind: 2 mph from North

Location: Bangui Airport

Current Time: Dec 18, 2014 at 8:34:37 AM

Latest Report: Dec 18, 2014 at 8:00 AM


Visibility: 1 mi

Pressure: 29.95 "Hg

Humidity: 100%

Dew point: 73 °F

Location of BanguiLocation

Historic Weather in Bangui — Graph

°F

Bangui temperature yesterday

Maximum temperature yesterday: 90 °F (at 2:00 PM)
Minimum temperature yesterday: 68 °F (at 4:00 AM)
Average temperature yesterday: 77 °F

Past Weeks' High & Low Weather Summary

 TemperatureHumidityPressure
High93 °F (Dec 5, 2:00 PM)100% (Dec 3, 11:00 PM)29.95 "Hg (Dec 3, 11:00 PM)
Low68 °F (Dec 3, 7:00 AM)40% (Dec 14, 1:00 PM)29.74 "Hg (Dec 3, 4:00 PM)
Average78 °F83%29.85 "Hg
* Reported Dec 3 7:00 AM — Dec 18 7:00 AM, Bangui, Weather by CustomWeather, © 2014

Note: Actual official high and low records may vary slightly from our data, if they occured in-between our weather recording intervals... More about our weather records

Advertising

Bangui weather history for previous 24 hours

 ConditionsComfort  
Time TempWeatherWind HumidityBarometerVisibility
7:00 AM
Dec 18
72 °FFog.No wind100%29.92 "Hg1 mi
6:00 AM72 °FMild.No wind100%29.92 "Hg1 mi
5:00 AM72 °FFog.2 mph100%29.89 "Hg2 mi
4:00 AM72 °FPassing clouds.No wind100%29.89 "Hg4 mi
3:00 AM72 °FClear.2 mph100%29.86 "Hg10 mi
2:00 AM73 °FClear.No wind100%29.86 "Hg10 mi
1:00 AM73 °FClear.No wind100%29.89 "Hg10 mi
12:00 AM73 °FClear.No wind100%29.89 "Hg10 mi
11:00 PM
Dec 17
75 °FClear.No wind94%29.89 "Hg10 mi
10:00 PM77 °FClear.No wind94%29.92 "Hg10 mi
9:00 PM77 °FClear.No wind94%29.92 "Hg10 mi
8:00 PM77 °FClear.No wind94%29.89 "Hg4 mi
7:00 PM77 °FClear.2 mph89%29.89 "Hg4 mi
6:10 PM79 °FClear.5 mph89%29.83 "Hg4 mi
5:00 PM82 °FSunny.7 mph79%29.83 "Hg10 mi
4:00 PM86 °FPassing clouds.7 mph70%29.80 "HgN/A
3:00 PM88 °FPassing clouds.5 mph62%29.80 "HgN/A
2:00 PM90 °FScattered clouds.2 mph59%29.83 "HgN/A
1:00 PM88 °FScattered clouds.2 mph62%29.86 "HgN/A
12:00 PM86 °FPartly sunny.2 mph66%29.89 "HgN/A
11:00 AM82 °FPartly sunny.1 mph74%29.92 "HgN/A
10:00 AM79 °FPartly sunny.2 mph84%29.95 "Hg5 mi
9:00 AM77 °FPartly sunny.3 mph89%29.95 "Hg4 mi
8:00 AM75 °FFog.No wind89%29.95 "Hg2 mi
Weather by CustomWeather, © 2014

See weather overviewHow to use our weather pages